When you browse on this site, cookies collect data to enhance your experience and personalize the content and advertising you see.
Visit our Privacy Policy to learn more. By continuing to use the site, you agree to this use of cookies and data.
  • In Hungary
  • List of Countries
  • For 7 days
  • Water Temperature
  • Satellite Maps
  • Weather Map
  • News
  • Weather Widgets
  • user-avatar
    Login

    Hourly Weather Teregaevo

    Today, 23 May, Thursday

    Time Temperature Precipitation Wind Pressure Humidity
    00:00 +15°C° 0 mm 1 mps 747 mmHg 89%
    01:00 +15°C° 0 mm 1 mps 747 mmHg 91%
    02:00 +14°C° 0 mm 1 mps 747 mmHg 93%
    03:00 +15°C° 0 mm 1 mps 746 mmHg 93%
    04:00 +15°C° 0 mm 1 mps 746 mmHg 92%
    05:00 +15°C° 0 mm 1 mps 746 mmHg 92%
    06:00 +18°C° 0 mm 1 mps 746 mmHg 87%
    07:00 +20°C° 0 mm 1 mps 746 mmHg 82%
    08:00 +21°C° 0 mm 1 mps 746 mmHg 76%
    09:00 +22°C° 0.9 mm 1 mps 746 mmHg 76%
    10:00 +23°C° 0.9 mm 1 mps 746 mmHg 75%
    11:00 +24°C° 0.9 mm 1 mps 746 mmHg 74%
    12:00 +24°C° 1.6 mm 1 mps 746 mmHg 74%
    13:00 +24°C° 1.6 mm 2 mps 746 mmHg 75%
    14:00 +24°C° 1.6 mm 2 mps 746 mmHg 75%
    15:00 +24°C° 0.6 mm 2 mps 746 mmHg 76%
    16:00 +23°C° 0.6 mm 2 mps 747 mmHg 77%
    17:00 +23°C° 0.6 mm 2 mps 747 mmHg 78%
    18:00 +21°C° 0.2 mm 2 mps 747 mmHg 83%
    19:00 +19°C° 0.2 mm 2 mps 747 mmHg 87%
    20:00 +17°C° 0.2 mm 2 mps 747 mmHg 92%
    21:00 +16°C° 0 mm 2 mps 748 mmHg 91%
    22:00 +14°C° 0 mm 3 mps 748 mmHg 91%
    23:00 +13°C° 0 mm 3 mps 748 mmHg 90%

    Tomorrow, 24 May, Friday

    Time Temperature Precipitation Wind Pressure Humidity
    00:00 +12°C° 0 mm 3 mps 749 mmHg 91%
    01:00 +11°C° 0 mm 3 mps 749 mmHg 93%
    02:00 +12°C° 0 mm 2 mps 749 mmHg 94%
    03:00 +12°C° 0 mm 2 mps 749 mmHg 94%
    04:00 +10°C° 0 mm 2 mps 749 mmHg 93%
    05:00 +10°C° 0 mm 2 mps 749 mmHg 93%
    06:00 +13°C° 0 mm 2 mps 749 mmHg 89%
    07:00 +14°C° 0 mm 2 mps 749 mmHg 84%
    08:00 +16°C° 0 mm 2 mps 749 mmHg 80%
    09:00 +17°C° 0 mm 3 mps 749 mmHg 77%
    10:00 +18°C° 0 mm 3 mps 749 mmHg 74%
    11:00 +20°C° 0 mm 3 mps 749 mmHg 71%
    12:00 +20°C° 0.2 mm 3 mps 749 mmHg 70%
    13:00 +21°C° 0.2 mm 3 mps 749 mmHg 70%
    14:00 +21°C° 0.2 mm 3 mps 748 mmHg 69%
    15:00 +21°C° 1.4 mm 3 mps 748 mmHg 74%
    16:00 +20°C° 1.4 mm 3 mps 748 mmHg 79%
    17:00 +20°C° 1.4 mm 2 mps 747 mmHg 84%
    18:00 +19°C° 2.4 mm 2 mps 747 mmHg 87%
    19:00 +18°C° 2.4 mm 2 mps 747 mmHg 90%
    20:00 +17°C° 2.4 mm 2 mps 747 mmHg 92%
    21:00 +16°C° 0.1 mm 2 mps 747 mmHg 93%
    22:00 +15°C° 0.1 mm 2 mps 747 mmHg 95%
    23:00 +14°C° 0.1 mm 1 mps 747 mmHg 96%

    Day after tomorrow, 25 May, Saturday

    Time Temperature Precipitation Wind Pressure Humidity
    00:00 +13°C° 0 mm 1 mps 747 mmHg 95%
    01:00 +12°C° 0 mm 2 mps 747 mmHg 95%
    02:00 +10°C° 0 mm 2 mps 747 mmHg 95%
    03:00 +11°C° 0 mm 1 mps 747 mmHg 95%
    04:00 +11°C° 0 mm 1 mps 747 mmHg 95%
    05:00 +11°C° 0 mm 1 mps 747 mmHg 95%
    06:00 +13°C° 0 mm 1 mps 747 mmHg 90%
    07:00 +14°C° 0 mm 1 mps 747 mmHg 84%
    08:00 +16°C° 0 mm 1 mps 747 mmHg 79%
    09:00 +18°C° 0 mm 1 mps 746 mmHg 70%
    10:00 +19°C° 0 mm 1 mps 746 mmHg 60%
    11:00 +20°C° 0 mm 2 mps 746 mmHg 51%
    12:00 +20°C° 0 mm 2 mps 745 mmHg 50%
    13:00 +21°C° 0 mm 3 mps 745 mmHg 49%
    14:00 +21°C° 0 mm 3 mps 744 mmHg 48%
    15:00 +19°C° 0.8 mm 3 mps 744 mmHg 61%
    16:00 +18°C° 0.8 mm 3 mps 744 mmHg 75%
    17:00 +15°C° 0.8 mm 4 mps 743 mmHg 88%
    18:00 +14°C° 0.2 mm 3 mps 743 mmHg 89%
    19:00 +13°C° 0.2 mm 3 mps 744 mmHg 90%
    20:00 +13°C° 0.2 mm 2 mps 744 mmHg 91%
    21:00 +12°C° 0 mm 2 mps 744 mmHg 92%
    22:00 +10°C° 0 mm 2 mps 744 mmHg 94%
    23:00 +9°C° 0 mm 2 mps 744 mmHg 95%

    26 May, Sunday

    Time Temperature Precipitation Wind Pressure Humidity
    00:00 +9°C° 0 mm 3 mps 744 mmHg 95%
    01:00 +8°C° 0 mm 3 mps 744 mmHg 96%
    02:00 +8°C° 0 mm 3 mps 744 mmHg 96%
    03:00 +8°C° 0 mm 3 mps 744 mmHg 95%
    04:00 +8°C° 0 mm 3 mps 744 mmHg 94%
    05:00 +8°C° 0 mm 3 mps 744 mmHg 94%
    06:00 +9°C° 0 mm 3 mps 744 mmHg 91%
    07:00 +10°C° 0 mm 3 mps 744 mmHg 88%
    08:00 +10°C° 0 mm 3 mps 744 mmHg 85%
    09:00 +12°C° 0 mm 3 mps 744 mmHg 77%
    10:00 +14°C° 0 mm 3 mps 744 mmHg 68%
    11:00 +17°C° 0 mm 4 mps 744 mmHg 60%
    12:00 +17°C° 0.4 mm 4 mps 744 mmHg 64%
    13:00 +16°C° 0.4 mm 5 mps 743 mmHg 68%
    14:00 +16°C° 0.4 mm 5 mps 743 mmHg 72%
    15:00 +16°C° 0.1 mm 5 mps 743 mmHg 69%
    16:00 +15°C° 0.1 mm 5 mps 743 mmHg 66%
    17:00 +15°C° 0.1 mm 5 mps 743 mmHg 63%
    18:00 +13°C° 0.3 mm 4 mps 742 mmHg 73%
    19:00 +12°C° 0.3 mm 3 mps 742 mmHg 83%
    20:00 +10°C° 0.3 mm 3 mps 742 mmHg 94%
    21:00 +9°C° 0.5 mm 3 mps 742 mmHg 94%
    22:00 +9°C° 0.5 mm 3 mps 742 mmHg 95%
    23:00 +9°C° 0.5 mm 3 mps 742 mmHg 96%

    27 May, Monday

    Time Temperature Precipitation Wind Pressure Humidity
    00:00 +8°C° 0.1 mm 3 mps 742 mmHg 95%
    01:00 +7°C° 0.1 mm 3 mps 742 mmHg 95%
    02:00 +5°C° 0.1 mm 3 mps 742 mmHg 95%
    03:00 +6°C° 0.4 mm 4 mps 742 mmHg 95%
    04:00 +6°C° 0.4 mm 4 mps 742 mmHg 95%
    05:00 +6°C° 0.4 mm 5 mps 742 mmHg 95%
    06:00 +7°C° 0.2 mm 5 mps 743 mmHg 91%
    07:00 +8°C° 0.2 mm 5 mps 743 mmHg 88%
    08:00 +9°C° 0.2 mm 5 mps 743 mmHg 85%
    09:00 +10°C° 0.1 mm 5 mps 744 mmHg 80%
    10:00 +12°C° 0.1 mm 5 mps 744 mmHg 75%
    11:00 +13°C° 0.1 mm 5 mps 745 mmHg 69%
    12:00 +11°C° 0.2 mm 6 mps 745 mmHg 72%
    13:00 +11°C° 0.2 mm 6 mps 746 mmHg 74%
    14:00 +11°C° 0.2 mm 6 mps 747 mmHg 77%
    15:00 +12°C° 0.1 mm 5 mps 747 mmHg 76%
    16:00 +13°C° 0.1 mm 5 mps 747 mmHg 76%
    17:00 +13°C° 0.1 mm 4 mps 747 mmHg 76%
    18:00 +12°C° 0 mm 3 mps 748 mmHg 79%
    19:00 +11°C° 0 mm 3 mps 748 mmHg 83%
    20:00 +10°C° 0 mm 2 mps 748 mmHg 87%
    21:00 +9°C° 0 mm 2 mps 748 mmHg 90%
    22:00 +8°C° 0 mm 2 mps 749 mmHg 92%
    23:00 +7°C° 0 mm 2 mps 749 mmHg 95%

    28 May, Tuesday

    Time Temperature Precipitation Wind Pressure Humidity
    00:00 +7°C° 0 mm 2 mps 749 mmHg 95%
    01:00 +7°C° 0 mm 2 mps 749 mmHg 95%
    02:00 +7°C° 0 mm 2 mps 749 mmHg 95%
    03:00 +8°C° 0 mm 2 mps 749 mmHg 93%
    04:00 +9°C° 0 mm 3 mps 749 mmHg 90%
    05:00 +9°C° 0 mm 3 mps 749 mmHg 88%
    06:00 +12°C° 0 mm 3 mps 749 mmHg 83%
    07:00 +14°C° 0 mm 3 mps 749 mmHg 78%
    08:00 +17°C° 0 mm 3 mps 749 mmHg 73%
    09:00 +19°C° 0 mm 4 mps 749 mmHg 68%
    10:00 +20°C° 0 mm 4 mps 749 mmHg 63%
    11:00 +22°C° 0 mm 4 mps 749 mmHg 59%
    12:00 +22°C° 0 mm 4 mps 748 mmHg 61%
    13:00 +21°C° 0 mm 4 mps 748 mmHg 62%
    14:00 +21°C° 0 mm 4 mps 748 mmHg 64%
    15:00 +19°C° 0.4 mm 4 mps 747 mmHg 74%
    16:00 +18°C° 0.4 mm 4 mps 747 mmHg 84%
    17:00 +16°C° 0.4 mm 3 mps 747 mmHg 94%
    18:00 +16°C° 0.2 mm 3 mps 746 mmHg 95%
    19:00 +16°C° 0.2 mm 3 mps 745 mmHg 96%
    20:00 +16°C° 0.2 mm 3 mps 745 mmHg 97%
    21:00 +16°C° 2.7 mm 3 mps 744 mmHg 97%
    22:00 +17°C° 2.7 mm 3 mps 744 mmHg 98%
    23:00 +17°C° 2.7 mm 3 mps 744 mmHg 98%
    Show more